| time (UTC) | temp F | wind direction | speed knots | gust knots | rain 1hr in | rain 24hr in | rain mn in | humidity % | barometer mb |
| 20260506033031 | 62 | 89 | 0.9 | 3.5 | 0.00 | 0.00 | 0.00 | 66 | 1016.6 |
| 20260506031532 | 64 | 340 | 0.9 | 3.5 | 0.00 | 0.00 | 0.00 | 62 | 1016.5 |
| 20260506030037 | 66 | 322 | 0.9 | 4.3 | 0.00 | 0.00 | 0.00 | 59 | 1016.3 |
| 20260506024536 | 67 | 348 | 2.6 | 7.0 | 0.00 | 0.00 | 0.00 | 57 | 1016.1 |
| 20260506023034 | 69 | 354 | 3.5 | 7.0 | 0.00 | 0.00 | 0.00 | 55 | 1016.0 |
| 20260506020150 | 71 | 7 | 4.3 | 8.7 | 0.00 | 0.00 | 0.00 | 52 | 1015.8 |
| 20260506014636 | 72 | 1 | 4.3 | 10.4 | 0.00 | 0.00 | 0.00 | 50 | 1015.7 |
| 20260506011606 | 75 | 2 | 3.5 | 9.6 | 0.00 | 0.00 | 0.00 | 46 | 1015.6 |
| 20260506010033 | 76 | 317 | 4.3 | 10.4 | 0.00 | 0.00 | 0.00 | 45 | 1015.5 |
| 20260506004635 | 76 | 316 | 4.3 | 8.7 | 0.00 | 0.00 | 0.00 | 47 | 1015.6 |
| 20260506003033 | 76 | 7 | 3.5 | 8.7 | 0.00 | 0.00 | 0.00 | 49 | 1015.6 |
| 20260505234530 | 75 | 12 | 4.3 | 9.6 | 0.00 | 0.00 | 0.00 | 49 | 1015.8 |
| 20260505233031 | 75 | 22 | 4.3 | 9.6 | 0.00 | 0.00 | 0.00 | 48 | 1015.8 |
| 20260505230148 | 75 | 10 | 4.3 | 9.6 | 0.00 | 0.00 | 0.00 | 48 | 1015.9 |
| 20260505224532 | 75 | 354 | 4.3 | 9.6 | 0.00 | 0.00 | 0.00 | 49 | 1016.0 |
| 20260505221637 | 75 | 1 | 3.5 | 7.8 | 0.00 | 0.00 | 0.00 | 48 | 1016.2 |
| 20260505220035 | 75 | 7 | 4.3 | 9.6 | 0.00 | 0.00 | 0.00 | 48 | 1016.3 |
| 20260505214534 | 75 | 6 | 3.5 | 11.3 | 0.00 | 0.00 | 0.00 | 48 | 1016.3 |
| 20260505213105 | 74 | 5 | 2.6 | 7.0 | 0.00 | 0.00 | 0.00 | 50 | 1016.4 |
| 20260505211530 | 74 | 331 | 4.3 | 8.7 | 0.00 | 0.00 | 0.00 | 50 | 1016.5 |
| 20260505210031 | 73 | 345 | 3.5 | 7.8 | 0.00 | 0.00 | 0.00 | 51 | 1016.6 |
| 20260505204533 | 73 | 356 | 4.3 | 8.7 | 0.00 | 0.00 | 0.00 | 51 | 1016.7 |
| 20260505203034 | 72 | 352 | 4.3 | 8.7 | 0.00 | 0.00 | 0.00 | 52 | 1016.8 |
| 20260505201534 | 72 | 340 | 3.5 | 9.6 | 0.00 | 0.00 | 0.00 | 52 | 1016.8 |
| 20260505200028 | 71 | 345 | 3.5 | 7.8 | 0.00 | 0.00 | 0.00 | 54 | 1016.9 |
| 20260505194530 | 70 | 12 | 4.3 | 8.7 | 0.00 | 0.00 | 0.00 | 54 | 1017.0 |
| 20260505191530 | 70 | 39 | 3.5 | 7.8 | 0.00 | 0.00 | 0.00 | 54 | 1017.2 |
| 20260505190033 | 69 | 3 | 2.6 | 7.8 | 0.00 | 0.00 | 0.00 | 54 | 1017.2 |
| 20260505184530 | 69 | 15 | 3.5 | 8.7 | 0.00 | 0.00 | 0.00 | 55 | 1017.3 |
| 20260505183031 | 68 | 40 | 3.5 | 8.7 | 0.00 | 0.00 | 0.00 | 55 | 1017.3 |
| 20260505181536 | 68 | 16 | 4.3 | 9.6 | 0.00 | 0.00 | 0.00 | 54 | 1017.3 |
| 20260505180108 | 68 | 16 | 3.5 | 8.7 | 0.00 | 0.00 | 0.00 | 54 | 1017.2 |
| 20260505174535 | 67 | 34 | 3.5 | 10.4 | 0.00 | 0.00 | 0.00 | 56 | 1017.2 |
| 20260505173035 | 67 | 355 | 3.5 | 8.7 | 0.00 | 0.00 | 0.00 | 56 | 1017.1 |
| 20260505171536 | 66 | 31 | 2.6 | 7.0 | 0.00 | 0.00 | 0.00 | 58 | 1017.1 |
| 20260505170038 | 64 | 358 | 3.5 | 7.8 | 0.00 | 0.00 | 0.00 | 60 | 1017.1 |
| 20260505164535 | 64 | 8 | 3.5 | 7.8 | 0.00 | 0.00 | 0.00 | 61 | 1017.0 |
| 20260505163143 | 63 | 9 | 3.5 | 7.8 | 0.00 | 0.00 | 0.00 | 63 | 1016.9 |
| 20260505153034 | 60 | 17 | 2.6 | 5.2 | 0.00 | 0.00 | 0.00 | 68 | 1017.0 |
| 20260505151536 | 61 | 302 | 0.9 | 6.1 | 0.00 | 0.00 | 0.00 | 69 | 1016.9 |
| 20260505124643 | 47 | 140 | 2.6 | 5.2 | 0.00 | 0.00 | 0.00 | 91 | 1015.9 |
| 20260505123036 | 47 | 149 | 2.6 | 3.5 | 0.00 | 0.00 | 0.00 | 90 | 1015.9 |
| 20260505121608 | 47 | 147 | 2.6 | 4.3 | 0.00 | 0.00 | 0.00 | 90 | 1015.9 |
| 20260505114534 | 48 | 142 | 2.6 | 4.3 | 0.00 | 0.00 | 0.00 | 89 | 1015.8 |
| 20260505113035 | 48 | 141 | 2.6 | 4.3 | 0.00 | 0.00 | 0.00 | 88 | 1015.8 |
| 20260505111531 | 48 | 149 | 2.6 | 3.5 | 0.00 | 0.00 | 0.00 | 87 | 1015.7 |
| 20260505100044 | 50 | 130 | 2.6 | 5.2 | 0.00 | 0.00 | 0.00 | 84 | 1015.3 |
| 20260505094648 | 51 | 146 | 2.6 | 4.3 | 0.00 | 0.00 | 0.00 | 82 | 1015.3 |
| 20260505093036 | 52 | 126 | 1.7 | 5.2 | 0.00 | 0.00 | 0.00 | 81 | 1015.3 |
| 20260505084531 | 52 | 138 | 2.6 | 5.2 | 0.00 | 0.00 | 0.00 | 80 | 1015.0 |
| 20260505083119 | 52 | 137 | 2.6 | 5.2 | 0.00 | 0.00 | 0.00 | 79 | 1015.1 |
| 20260505081530 | 53 | 142 | 2.6 | 5.2 | 0.00 | 0.00 | 0.00 | 79 | 1015.1 |
| 20260505080036 | 53 | 135 | 2.6 | 4.3 | 0.00 | 0.00 | 0.00 | 79 | 1015.1 |
| 20260505074535 | 54 | 156 | 2.6 | 5.2 | 0.00 | 0.00 | 0.00 | 80 | 1015.1 |
| 20260505073031 | 54 | 140 | 2.6 | 4.3 | 0.00 | 0.00 | 0.00 | 81 | 1015.0 |
| 20260505071642 | 55 | 149 | 1.7 | 5.2 | 0.00 | 0.00 | 0.00 | 79 | 1014.9 |
| 20260505070031 | 56 | 170 | 1.7 | 4.3 | 0.00 | 0.00 | 0.00 | 79 | 1014.9 |
| 20260505064529 | 57 | 238 | 0.0 | 3.5 | 0.00 | 0.00 | 0.00 | 79 | 1014.9 |
| 20260505063029 | 56 | 131 | 0.0 | 3.5 | 0.00 | 0.00 | 0.00 | 78 | 1014.9 |
| 20260505061608 | 57 | 289 | 0.0 | 3.5 | 0.00 | 0.00 | 0.00 | 76 | 1014.9 |
| 20260505060029 | 56 | 222 | 1.7 | 4.3 | 0.00 | 0.00 | 0.00 | 77 | 1015.0 |
| 20260505051539 | 56 | 94 | 1.7 | 4.3 | 0.00 | 0.00 | 0.00 | 69 | 1014.8 |
| 20260505034534 | 63 | 208 | 3.5 | 7.8 | 0.00 | 0.00 | 0.00 | 52 | 1013.9 |